Tehachapi, CA

8:34 PM PDT on April 21, 2018 (GMT -0700)
Tehachapi Municipal

Weather History for KTSP - December, 2011

Change the Weather History Date:

Monday, December 26, 2011

  Actual Average Record
Temperature  
Mean Temperature 40 °F -  
Max Temperature 62 °F 49 °F 62 °F (2011)
Min Temperature 19 °F 31 °F 19 °F (2011)
Degree Days  
Heating Degree Days 24    
Moisture  
Dew Point 2 °F    
Average Humidity 25    
Maximum Humidity 54    
Minimum Humidity 7    
Precipitation  
Precipitation 0.00 in - - ()
Sea Level Pressure  
Sea Level Pressure 30.29 in    
Wind  
Wind Speed 5 mph (NW)    
Max Wind Speed 16 mph    
Max Gust Speed -    
Visibility 9 miles    
Events      
Averages and records for this station are not official NWS values.
T = Trace of Precipitation, MM = Missing Value Source: NWS Daily Summary

Daily Weather History Graph

Daily Weather History Graph

Search for Another Location

Airport or City:

Astronomy

Dec. 26, 2011 Rise Set
Actual Time 7:00 AM PST 4:48 PM PST
Civil Twilight 6:32 AM PST 5:16 PM PST
Nautical Twilight 6:00 AM PST 5:48 PM PST
Astronomical Twilight 5:29 AM PST 6:19 PM PST
Moon 8:27 AM PST (12/26) 7:16 PM PST (12/26)
Length of Visible Light 10h 44m
Length of Day
9h 47m
Waxing Crescent, 5% of the Moon is Illuminated
Dec 26
Waxing Crescent
Dec 31
First Quarter
Jan 8
Full
Jan 16
Last Quarter
Jan 22
New

Hourly Weather History & Observations

Time (PST) Temp. Windchill Dew Point Humidity Pressure Visibility Wind Dir Wind Speed Gust Speed Precip Events Conditions
12:15 AM 35.6 °F 32.8 °F 3.2 °F 26% 30.30 in 10.0 mi West 3.5 mph - N/A   Clear
12:35 AM 35.6 °F 32.8 °F 1.4 °F 24% 30.30 in 10.0 mi West 3.5 mph - N/A   Clear
12:55 AM 37.4 °F - 1.4 °F 22% 30.29 in 10.0 mi Calm Calm - N/A   Clear
1:15 AM 35.6 °F - 1.4 °F 24% 30.29 in 10.0 mi Calm Calm - N/A   Clear
1:35 AM 35.6 °F 31.7 °F 1.4 °F 24% 30.29 in 10.0 mi SW 4.6 mph - N/A   Clear
2:15 AM 32.0 °F - 1.4 °F 27% 30.29 in 10.0 mi Calm Calm - N/A   Clear
2:35 AM 23.0 °F 18.4 °F 5.0 °F 46% 30.29 in 10.0 mi ESE 3.5 mph - N/A   Clear
2:55 AM 26.6 °F 20.0 °F 5.0 °F 40% 30.29 in 10.0 mi SSE 5.8 mph - N/A   Clear
3:15 AM 24.8 °F 20.5 °F 5.0 °F 43% 30.29 in 10.0 mi ENE 3.5 mph - N/A   Clear
3:35 AM 23.0 °F - 5.0 °F 46% 30.29 in 10.0 mi Calm Calm - N/A   Clear
3:55 AM 23.0 °F 17.0 °F 3.2 °F 43% 30.28 in 10.0 mi SE 4.6 mph - N/A   Clear
4:35 AM 23.0 °F 17.0 °F 3.2 °F 43% 30.28 in 10.0 mi ESE 4.6 mph - N/A   Clear
4:55 AM 19.4 °F - 5.0 °F 54% 30.28 in 10.0 mi Calm Calm - N/A   Clear
5:15 AM 23.0 °F - 5.0 °F 46% 30.28 in 10.0 mi Calm Calm - N/A   Clear
5:35 AM 23.0 °F 15.8 °F 3.2 °F 43% 30.29 in 10.0 mi ESE 5.8 mph - N/A   Clear
5:55 AM 23.0 °F - 1.4 °F 39% 30.29 in 10.0 mi Calm Calm - N/A   Clear
6:15 AM 19.4 °F 14.3 °F 3.2 °F 49% 30.29 in 10.0 mi East 3.5 mph - N/A   Clear
6:35 AM 19.4 °F - 5.0 °F 54% 30.29 in 10.0 mi Calm Calm - N/A   Clear
6:55 AM 21.2 °F 14.9 °F 5.0 °F 50% 30.29 in 9.0 mi ESE 4.6 mph - N/A   Clear
7:15 AM 19.4 °F - 5.0 °F 54% 30.30 in 8.0 mi Calm Calm - N/A   Clear
7:35 AM 23.0 °F - 5.0 °F 46% 30.30 in 9.0 mi Calm Calm - N/A   Clear
7:55 AM 26.6 °F - 5.0 °F 40% 30.30 in 10.0 mi Calm Calm - N/A   Clear
8:15 AM 26.6 °F 19.1 °F 5.0 °F 40% 30.31 in 8.0 mi ESE 6.9 mph - N/A   Clear
8:35 AM 32.0 °F 28.7 °F 8.6 °F 38% 30.31 in 8.0 mi East 3.5 mph - N/A   Clear
8:55 AM 39.2 °F - 8.6 °F 28% 30.32 in 7.0 mi Calm Calm - N/A   Clear
9:15 AM 44.6 °F - 5.0 °F 20% 30.33 in 8.0 mi Calm Calm - N/A   Clear
9:35 AM 48.2 °F - 5.0 °F 17% 30.33 in 8.0 mi Calm Calm - N/A   Clear
9:55 AM 50.0 °F - -0.4 °F 13% 30.33 in 7.0 mi Calm Calm - N/A   Clear
10:15 AM 53.6 °F - -2.2 °F 10% 30.32 in 5.0 mi Calm Calm - N/A   Haze
10:35 AM 55.4 °F - -0.4 °F 10% 30.32 in 5.0 mi Calm Calm - N/A   Haze
10:55 AM 57.2 °F - -2.2 °F 9% 30.31 in 7.0 mi NW 10.4 mph - N/A   Clear
11:15 AM 59.0 °F - -0.4 °F 9% 30.30 in 7.0 mi NW 9.2 mph - N/A   Clear
11:35 AM 59.0 °F - -2.2 °F 8% 30.30 in 7.0 mi NW 10.4 mph - N/A   Clear
11:55 AM 59.0 °F - -4.0 °F 8% 30.29 in 7.0 mi NW 10.4 mph - N/A   Clear
12:15 PM 60.8 °F - -4.0 °F 7% 30.28 in 7.0 mi NW 11.5 mph - N/A   Clear
12:35 PM 60.8 °F - -0.4 °F 8% 30.27 in 7.0 mi NW 13.8 mph - N/A   Clear
12:55 PM 62.6 °F - -0.4 °F 8% 30.26 in 6.0 mi NW 16.1 mph - N/A   Haze
1:15 PM 60.8 °F - -0.4 °F 8% 30.26 in 8.0 mi NW 15.0 mph - N/A   Clear
1:35 PM 59.0 °F - 1.4 °F 10% 30.26 in 9.0 mi NW 15.0 mph - N/A   Clear
1:55 PM 59.0 °F - 1.4 °F 10% 30.27 in 7.0 mi NW 12.7 mph - N/A   Clear
2:15 PM 59.0 °F - 1.4 °F 10% 30.27 in 8.0 mi NW 11.5 mph - N/A   Clear
2:35 PM 59.0 °F - 1.4 °F 10% 30.27 in 9.0 mi NW 13.8 mph - N/A   Clear
2:55 PM 57.2 °F - 1.4 °F 10% 30.27 in 9.0 mi WNW 11.5 mph - N/A   Clear
3:15 PM 57.2 °F - 1.4 °F 10% 30.28 in 9.0 mi WNW 12.7 mph - N/A   Clear
3:35 PM 55.4 °F - -0.4 °F 10% 30.29 in 8.0 mi NW 10.4 mph - N/A   Clear
3:55 PM 53.6 °F - 1.4 °F 12% 30.29 in 9.0 mi NW 13.8 mph - N/A   Clear
4:15 PM 51.8 °F - 1.4 °F 13% 30.29 in 9.0 mi WNW 11.5 mph - N/A   Clear
4:35 PM 50.0 °F - -0.4 °F 13% 30.29 in 9.0 mi WNW 12.7 mph - N/A   Clear
4:55 PM 48.2 °F - -0.4 °F 13% 30.29 in 9.0 mi NW 9.2 mph - N/A   Clear
5:15 PM 42.8 °F 40.1 °F -0.4 °F 16% 30.29 in 8.0 mi NNW 4.6 mph - N/A   Clear
5:35 PM 41.0 °F 37.1 °F -0.4 °F 18% 30.29 in 10.0 mi West 5.8 mph - N/A   Clear
5:55 PM 39.2 °F 35.9 °F 1.4 °F 21% 30.29 in 10.0 mi NW 4.6 mph - N/A   Clear
6:15 PM 41.0 °F 38.0 °F 3.2 °F 21% 30.30 in 10.0 mi NNW 4.6 mph - N/A   Clear
6:35 PM 41.0 °F 36.4 °F 1.4 °F 19% 30.30 in 10.0 mi NW 6.9 mph - N/A   Clear
6:55 PM 41.0 °F 38.0 °F 1.4 °F 19% 30.30 in 10.0 mi NW 4.6 mph - N/A   Clear
7:15 PM 41.0 °F 35.8 °F 3.2 °F 21% 30.30 in 10.0 mi NW 8.1 mph - N/A   Clear
7:35 PM 41.0 °F 35.8 °F 3.2 °F 21% 30.29 in 10.0 mi NW 8.1 mph - N/A   Clear
7:55 PM 41.0 °F 38.0 °F 3.2 °F 21% 30.30 in 10.0 mi SSW 4.6 mph - N/A   Clear
8:15 PM 41.0 °F 37.1 °F 5.0 °F 23% 30.30 in 9.0 mi WNW 5.8 mph - N/A   Clear
8:35 PM 39.2 °F 35.0 °F 6.8 °F 26% 30.30 in 10.0 mi NNW 5.8 mph - N/A   Clear
9:15 PM 35.6 °F - 5.0 °F 28% 30.30 in 10.0 mi Calm Calm - N/A   Clear
9:35 PM 37.4 °F 33.8 °F 3.2 °F 24% 30.30 in 10.0 mi North 4.6 mph - N/A   Clear
9:55 PM 37.4 °F 33.8 °F 1.4 °F 22% 30.30 in 10.0 mi North 4.6 mph - N/A   Clear
10:15 PM 35.6 °F - 1.4 °F 24% 30.30 in 10.0 mi Calm Calm - N/A   Clear
10:35 PM 37.4 °F 34.9 °F 1.4 °F 22% 30.30 in 10.0 mi NNW 3.5 mph - N/A   Clear
10:55 PM 39.2 °F - 1.4 °F 21% 30.30 in 10.0 mi Calm Calm - N/A   Clear
11:15 PM 42.8 °F 41.1 °F -0.4 °F 16% 30.30 in 10.0 mi West 3.5 mph - N/A   Clear
11:35 PM 41.0 °F 37.1 °F -0.4 °F 18% 30.30 in 10.0 mi SW 5.8 mph - N/A   Clear
11:55 PM 41.0 °F 38.0 °F -0.4 °F 18% 30.30 in 10.0 mi WSW 4.6 mph - N/A   Clear